Location: Kerentrech
(47.7567°N, 3.3595°W)
Time: 15:43:03
(UTC+00:00)

USA 215 - Pass Details

Date: 17 February 2020
Orbit: 1098 x 1110 km, 123.0° (Epoch: 08 March)

Event Time Altitude Azimuth Distance (km) Brightness Sun altitude
Rises 03:13:18 0° 55° (NE) 3,925 7.0 -40.5°
Reaches altitude 10° 03:15:47 10° 53° (NE) 2,967 6.2 -40.1°
Enters shadow 03:20:00 43° 42° (NE) 1,512 4.2 -39.5°
